Athens, GA

12:51 PM EDT on August 20, 2017 (GMT -0400)
Athens / Epps

Weather History for KAHN - September, 2013

Change the Weather History Date:

Saturday, September 14, 2013

  Actual Average Record
Temperature  
Mean Temperature 70 °F 74 °F  
Max Temperature 82 °F 85 °F 103 °F (1927)
Min Temperature 58 °F 64 °F 47 °F (1953)
Degree Days  
Heating Degree Days 0 0  
Month to date heating degree days 0 0  
Since 1 July heating degree days 3 0  
Cooling Degree Days 5 9  
Month to date cooling degree days 180 153  
Year to date cooling degree days 1507 1708  
Growing Degree Days 20 (Base 50)    
Moisture  
Dew Point 56 °F    
Average Humidity 65    
Maximum Humidity 84    
Minimum Humidity 45    
Precipitation  
Precipitation 0.00 in 0.13 in 3.54 in (2002)
Month to date precipitation 0.34 1.65  
Year to date precipitation 46.50 32.94  
Sea Level Pressure  
Sea Level Pressure 29.99 in    
Wind  
Wind Speed 7 mph (ENE)    
Max Wind Speed 18 mph    
Max Gust Speed 35 mph    
Visibility 7 miles    
Events      
T = Trace of Precipitation, MM = Missing Value Source: NWS Daily Summary

Daily Weather History Graph

Daily Weather History Graph

Search for Another Location

Airport or City:

Trip Planner

Search our weather history database for the weather conditions in past years. The results will help you decide how hot, cold, wet, or windy it might be!

Date:

Astronomy

Sep. 14, 2013 Rise Set
Actual Time 7:16 AM EDT 7:40 PM EDT
Civil Twilight 6:50 AM EDT 8:05 PM EDT
Nautical Twilight 6:21 AM EDT 8:35 PM EDT
Astronomical Twilight 5:51 AM EDT 9:05 PM EDT
Moon 4:11 PM EDT (9/14) 1:57 AM EDT (9/14)
Length of Visible Light 13h 14m
Length of Day
12h 24m
Waxing Gibbous, 72% of the Moon is Illuminated
Sep 14
Waxing Gibbous
Sep 19
Full
Sep 26
Last Quarter
Oct 4
New
Oct 11
First Quarter

Hourly Weather History & Observations

Time (EDT) Temp. Heat Index Dew Point Humidity Pressure Visibility Wind Dir Wind Speed Gust Speed Precip Events Conditions
12:51 AM 64.0 °F - 57.9 °F 80% 29.89 in 7.0 mi NW 3.5 mph - N/A   Clear
1:51 AM 62.1 °F - 57.9 °F 86% 29.90 in 7.0 mi Calm Calm - N/A   Clear
2:51 AM 62.1 °F - 55.9 °F 80% 29.91 in 7.0 mi North 3.5 mph - N/A   Partly Cloudy
3:51 AM 61.0 °F - 55.0 °F 81% 29.91 in 8.0 mi North 3.5 mph - N/A   Clear
4:51 AM 60.1 °F - 53.1 °F 78% 29.91 in 8.0 mi East 8.1 mph - N/A   Clear
5:51 AM 60.1 °F - 52.0 °F 75% 29.92 in 8.0 mi ENE 9.2 mph - N/A   Clear
6:51 AM 57.9 °F - 51.1 °F 78% 29.95 in 8.0 mi ENE 5.8 mph - N/A   Clear
7:51 AM 59.0 °F - 51.1 °F 75% 29.98 in 7.0 mi ENE 9.2 mph - N/A   Clear
8:51 AM 62.1 °F - 51.1 °F 67% 30.00 in 7.0 mi ENE 11.5 mph 19.6 mph N/A   Clear
9:51 AM 66.0 °F - 50.0 °F 56% 30.01 in 7.0 mi ENE 13.8 mph 23.0 mph N/A   Clear
10:51 AM 70.0 °F - 50.0 °F 49% 30.02 in 7.0 mi ENE 15.0 mph 21.9 mph N/A   Clear
11:51 AM 73.9 °F - 52.0 °F 46% 30.03 in 7.0 mi NE 12.7 mph 19.6 mph N/A   Clear
12:51 PM 75.9 °F - 54.0 °F 46% 30.02 in 7.0 mi NE 10.4 mph - N/A   Clear
1:51 PM 77.0 °F - 55.9 °F 48% 30.01 in 7.0 mi Variable 5.8 mph - N/A   Clear
2:51 PM 79.0 °F - 55.9 °F 45% 30.00 in 7.0 mi Variable 5.8 mph - N/A   Clear
3:51 PM 80.1 °F 80.4 °F 57.0 °F 45% 29.99 in 7.0 mi ENE 6.9 mph - N/A   Clear
4:51 PM 81.0 °F 81.0 °F 57.0 °F 44% 29.99 in 7.0 mi Variable 3.5 mph - N/A   Partly Cloudy
5:51 PM 80.1 °F 80.6 °F 57.9 °F 47% 30.00 in 6.0 mi East 5.8 mph - N/A   Haze
6:51 PM 75.9 °F - 60.1 °F 58% 30.01 in 6.0 mi East 4.6 mph - N/A   Haze
7:51 PM 71.1 °F - 60.1 °F 68% 30.02 in 6.0 mi ENE 3.5 mph - N/A   Haze
8:51 PM 68.0 °F - 61.0 °F 78% 30.04 in 7.0 mi ENE 4.6 mph - N/A   Scattered Clouds
9:51 PM 66.0 °F - 61.0 °F 84% 30.06 in 7.0 mi ENE 4.6 mph - N/A   Clear
10:51 PM 66.0 °F - 60.1 °F 81% 30.08 in 7.0 mi ENE 5.8 mph - N/A   Clear
11:51 PM 66.0 °F - 59.0 °F 78% 30.09 in 7.0 mi ENE 5.8 mph - N/A   Partly Cloudy